| time (UTC) | temp F | wind direction | speed knots | gust knots | rain 1hr in | rain 24hr in | rain mn in | humidity % | barometer mb |
| 20260505111535 | 0 | 0.0 | 0.0 | 0.00 | 0.00 | 0.00 | 1013.3 | ||
| 20260505101511 | 0 | 0.0 | 0.0 | 0.00 | 0.00 | 0.00 | 1013.0 | ||
| 20260505100011 | 0 | 0.0 | 0.0 | 0.00 | 0.00 | 0.00 | 1013.0 | ||
| 20260505094503 | 0 | 0.0 | 0.0 | 0.00 | 0.00 | 0.00 | 1012.9 | ||
| 20260505093108 | 0 | 0.0 | 0.0 | 0.00 | 0.00 | 0.00 | 1012.8 | ||
| 20260505091555 | 0 | 0.0 | 0.0 | 0.00 | 0.00 | 0.00 | 1012.7 | ||
| 20260505090049 | 0 | 0.0 | 0.0 | 0.00 | 0.00 | 0.00 | 1012.6 | ||
| 20260505084545 | 0 | 0.0 | 0.0 | 0.00 | 0.00 | 0.00 | 1012.5 | ||
| 20260505083040 | 0 | 0.0 | 0.0 | 0.00 | 0.00 | 0.00 | 1012.5 | ||
| 20260505081543 | 0 | 0.0 | 0.0 | 0.00 | 0.00 | 0.00 | 1012.5 | ||
| 20260505080037 | 0 | 0.0 | 0.0 | 0.00 | 0.00 | 0.00 | 1012.4 | ||
| 20260505074528 | 0 | 0.0 | 0.0 | 0.00 | 0.00 | 0.00 | 1012.3 | ||
| 20260505073029 | 0 | 0.0 | 0.0 | 0.00 | 0.00 | 0.00 | 1012.1 | ||
| 20260505071539 | 0 | 0.0 | 0.0 | 0.00 | 0.00 | 0.00 | 1011.9 | ||
| 20260505070015 | 0 | 0.0 | 0.0 | 0.00 | 0.00 | 0.00 | 1011.9 | ||
| 20260505064519 | 0 | 0.0 | 0.0 | 0.00 | 0.00 | 0.00 | 1011.7 | ||
| 20260505063012 | 0 | 0.0 | 0.0 | 0.00 | 0.00 | 0.00 | 1011.4 | ||
| 20260505061507 | 0 | 0.0 | 0.0 | 0.00 | 0.00 | 0.00 | 1011.2 | ||
| 20260505060057 | 0 | 0.0 | 0.0 | 0.00 | 0.00 | 0.00 | 1011.1 | ||
| 20260505054557 | 0 | 0.0 | 0.0 | 0.00 | 0.00 | 0.00 | 1010.9 | ||
| 20260505053057 | 0 | 0.0 | 0.0 | 0.00 | 0.00 | 0.00 | 1010.8 | ||
| 20260505051545 | 0 | 0.0 | 0.0 | 0.00 | 0.00 | 0.00 | 1010.7 | ||
| 20260505041527 | 0 | 0.0 | 0.0 | 0.00 | 0.00 | 0.00 | 1010.2 | ||
| 20260505040034 | 0 | 0.0 | 0.0 | 0.00 | 0.00 | 0.00 | 1010.0 | ||
| 20260505034519 | 0 | 0.0 | 0.0 | 0.00 | 0.00 | 0.00 | 1009.8 | ||
| 20260505033018 | 0 | 0.0 | 0.0 | 0.00 | 0.00 | 0.00 | 1009.6 | ||
| 20260505031509 | 0 | 0.0 | 0.0 | 0.00 | 0.00 | 0.00 | 1009.3 | ||
| 20260505030018 | 0 | 0.0 | 0.0 | 0.00 | 0.00 | 0.00 | 1009.0 | ||
| 20260505024501 | 0 | 0.0 | 0.0 | 0.00 | 0.00 | 0.00 | 1008.9 | ||
| 20260505023109 | 72 | 5 | 0.0 | 0.0 | 0.00 | 0.00 | 0.00 | 59 | 1008.8 |
| 20260505021602 | 72 | 5 | 0.0 | 0.0 | 0.00 | 0.00 | 0.00 | 57 | 1008.7 |
| 20260505020104 | 73 | 5 | 0.0 | 0.9 | 0.00 | 0.00 | 0.00 | 57 | 1008.5 |
| 20260505014600 | 75 | 5 | 0.0 | 0.0 | 0.00 | 0.00 | 0.00 | 55 | 1008.6 |
| 20260505013059 | 77 | 5 | 0.0 | 0.0 | 0.00 | 0.00 | 0.00 | 54 | 1008.5 |
| 20260505011558 | 78 | 5 | 0.0 | 0.0 | 0.00 | 0.00 | 0.00 | 50 | 1008.5 |
| 20260505010104 | 80 | 5 | 0.0 | 0.0 | 0.00 | 0.00 | 0.00 | 49 | 1008.4 |
| 20260505004558 | 81 | 5 | 0.0 | 1.7 | 0.00 | 0.00 | 0.00 | 45 | 1008.4 |
| 20260505003104 | 83 | 5 | 0.0 | 0.9 | 0.00 | 0.00 | 0.00 | 40 | 1008.5 |
| 20260505001557 | 84 | 350 | 0.0 | 0.9 | 0.00 | 0.00 | 0.00 | 41 | 1008.5 |
| 20260505000108 | 85 | 327 | 0.0 | 1.7 | 0.00 | 0.00 | 0.00 | 40 | 1008.3 |
| 20260504234556 | 84 | 107 | 0.0 | 0.9 | 0.00 | 0.00 | 0.00 | 40 | 1008.3 |
| 20260504233055 | 85 | 323 | 0.0 | 1.7 | 0.00 | 0.00 | 0.00 | 37 | 1008.4 |
| 20260504231553 | 85 | 61 | 0.0 | 0.9 | 0.00 | 0.00 | 0.00 | 37 | 1008.5 |
| 20260504230055 | 86 | 55 | 0.0 | 0.9 | 0.00 | 0.00 | 0.00 | 37 | 1008.6 |
| 20260504224554 | 86 | 91 | 0.0 | 1.7 | 0.00 | 0.00 | 0.00 | 38 | 1008.7 |
| 20260504223055 | 86 | 313 | 0.0 | 1.7 | 0.00 | 0.00 | 0.00 | 37 | 1008.8 |
| 20260504221554 | 86 | 350 | 0.0 | 0.0 | 0.00 | 0.00 | 0.00 | 36 | 1008.9 |
| 20260504220110 | 86 | 62 | 0.0 | 1.7 | 0.00 | 0.00 | 0.00 | 37 | 1009.0 |
| 20260504214554 | 86 | 338 | 0.0 | 1.7 | 0.00 | 0.00 | 0.00 | 38 | 1009.1 |
| 20260504213052 | 85 | 90 | 0.0 | 1.7 | 0.00 | 0.00 | 0.00 | 38 | 1009.2 |
| 20260504211542 | 84 | 347 | 0.0 | 2.6 | 0.00 | 0.00 | 0.00 | 39 | 1009.2 |
| 20260504210041 | 83 | 55 | 0.0 | 1.7 | 0.00 | 0.00 | 0.00 | 39 | 1009.3 |
| 20260504204539 | 83 | 135 | 0.0 | 0.9 | 0.00 | 0.00 | 0.00 | 37 | 1009.4 |
| 20260504203036 | 82 | 144 | 0.0 | 0.9 | 0.00 | 0.00 | 0.00 | 37 | 1009.6 |
| 20260504201537 | 82 | 36 | 0.0 | 2.6 | 0.00 | 0.00 | 0.00 | 37 | 1009.7 |
| 20260504200041 | 82 | 334 | 0.0 | 2.6 | 0.00 | 0.00 | 0.00 | 41 | 1009.7 |
| 20260504194531 | 81 | 344 | 0.0 | 1.7 | 0.00 | 0.00 | 0.00 | 40 | 1009.9 |
| 20260504193027 | 80 | 355 | 0.0 | 3.5 | 0.00 | 0.00 | 0.00 | 43 | 1009.8 |
| 20260504191537 | 80 | 43 | 0.0 | 1.7 | 0.00 | 0.00 | 0.00 | 43 | 1009.9 |
| 20260504190021 | 79 | 284 | 0.0 | 0.9 | 0.00 | 0.00 | 0.00 | 45 | 1010.1 |
| 20260504184517 | 78 | 102 | 0.0 | 0.9 | 0.00 | 0.00 | 0.00 | 46 | 1010.3 |
| 20260504183032 | 77 | 72 | 0.0 | 3.5 | 0.00 | 0.00 | 0.00 | 48 | 1010.3 |
| 20260504181518 | 76 | 254 | 0.0 | 2.6 | 0.00 | 0.00 | 0.00 | 46 | 1010.3 |
| 20260504180008 | 76 | 177 | 0.0 | 1.7 | 0.00 | 0.00 | 0.00 | 48 | 1010.3 |
| 20260504174505 | 75 | 222 | 0.0 | 0.0 | 0.00 | 0.00 | 0.00 | 51 | 1010.3 |
| 20260504173003 | 74 | 222 | 0.0 | 1.7 | 0.00 | 0.00 | 0.00 | 52 | 1010.3 |
| 20260504171557 | 72 | 197 | 0.0 | 0.0 | 0.00 | 0.00 | 0.00 | 52 | 1010.3 |